Location: Brantley
(31.5822°N, 86.2569°W)
Time: 05:57:26
(UTC+00:00)

Courier 1B Rocket - Pass Details

Date: 16 February 2026
Orbit: 920 x 1201 km, 28.2° (Epoch: 9 March)

Event Time Altitude Azimuth Distance (km) Brightness Sun altitude
Rises 23:14:13 0° 214° (SW) 3,543 8.8 3.0°
Reaches altitude 10° 23:17:32 10° 197° (SSW) 2,596 7.8 2.3°
Maximum altitude 23:21:52 20° 153° (SSE) 1,999 6.6 1.4°
Drops below altitude 10° 23:26:14 10° 108° (ESE) 2,636 6.8 0.5°
Sets 23:29:38 0° 92° (E) 3,615 7.3 -0.2°
